When you browse on this site, cookies collect data to enhance your experience and personalize the content and advertising you see.
Visit our Privacy Policy to learn more. By continuing to use the site, you agree to this use of cookies and data.
  • In Lithuania
  • List of Countries
  • For 7 days
  • Water Temperature
  • Weather Map
  • Weather Widgets
  • user-avatar
    Login

    Hourly Weather Kipungo

    Today, 2 June, Tuesday

    Time Temperature Precipitation Wind Pressure Humidity
    00:00 +14°C° 0 mm 0 mps 655 mmHg 54%
    01:00 +13°C° 0 mm 0 mps 655 mmHg 58%
    02:00 +13°C° 0 mm 0 mps 654 mmHg 61%
    03:00 +12°C° 0 mm 0 mps 654 mmHg 64%
    04:00 +12°C° 0 mm 0 mps 654 mmHg 67%
    05:00 +12°C° 0 mm 0 mps 654 mmHg 66%
    06:00 +13°C° 0 mm 0 mps 655 mmHg 65%
    07:00 +14°C° 0 mm 0 mps 655 mmHg 62%
    08:00 +19°C° 0 mm 1 mps 656 mmHg 52%
    09:00 +23°C° 0 mm 2 mps 657 mmHg 43%
    10:00 +26°C° 0 mm 2 mps 657 mmHg 33%
    11:00 +28°C° 0 mm 2 mps 657 mmHg 29%
    12:00 +29°C° 0 mm 2 mps 657 mmHg 25%
    13:00 +30°C° 0 mm 2 mps 656 mmHg 22%
    14:00 +30°C° 0 mm 2 mps 656 mmHg 21%
    15:00 +30°C° 0 mm 1 mps 655 mmHg 20%
    16:00 +30°C° 0 mm 1 mps 655 mmHg 19%
    17:00 +27°C° 0 mm 1 mps 654 mmHg 24%
    18:00 +24°C° 0 mm 1 mps 654 mmHg 29%
    19:00 +21°C° 0 mm 1 mps 654 mmHg 33%
    20:00 +20°C° 0 mm 1 mps 654 mmHg 35%
    21:00 +19°C° 0 mm 1 mps 654 mmHg 37%
    22:00 +19°C° 0 mm 1 mps 654 mmHg 39%
    23:00 +18°C° 0 mm 1 mps 654 mmHg 41%

    Tomorrow, 3 June, Wednesday

    Time Temperature Precipitation Wind Pressure Humidity
    00:00 +16°C° 0 mm 1 mps 654 mmHg 43%
    01:00 +15°C° 0 mm 1 mps 654 mmHg 45%
    02:00 +15°C° 0 mm 1 mps 653 mmHg 45%
    03:00 +14°C° 0 mm 0 mps 653 mmHg 46%
    04:00 +14°C° 0 mm 0 mps 653 mmHg 46%
    05:00 +14°C° 0 mm 0 mps 653 mmHg 47%
    06:00 +15°C° 0 mm 1 mps 654 mmHg 48%
    07:00 +15°C° 0 mm 1 mps 654 mmHg 50%
    08:00 +19°C° 0 mm 1 mps 655 mmHg 42%
    09:00 +21°C° 0 mm 2 mps 656 mmHg 35%
    10:00 +26°C° 0 mm 3 mps 656 mmHg 28%
    11:00 +27°C° 0 mm 3 mps 656 mmHg 26%
    12:00 +29°C° 0 mm 2 mps 656 mmHg 23%
    13:00 +30°C° 0 mm 2 mps 656 mmHg 21%
    14:00 +30°C° 0 mm 1 mps 655 mmHg 21%
    15:00 +30°C° 0 mm 1 mps 654 mmHg 21%
    16:00 +28°C° 0 mm 0 mps 654 mmHg 21%
    17:00 +27°C° 0 mm 1 mps 654 mmHg 24%
    18:00 +25°C° 0 mm 1 mps 654 mmHg 28%
    19:00 +23°C° 0 mm 1 mps 654 mmHg 31%
    20:00 +22°C° 0 mm 1 mps 654 mmHg 33%
    21:00 +22°C° 0 mm 1 mps 654 mmHg 35%
    22:00 +21°C° 0 mm 1 mps 655 mmHg 37%
    23:00 +20°C° 0 mm 1 mps 654 mmHg 40%

    Day after tomorrow, 4 June, Thursday

    Time Temperature Precipitation Wind Pressure Humidity
    00:00 +19°C° 0 mm 1 mps 654 mmHg 44%
    01:00 +18°C° 0 mm 1 mps 654 mmHg 47%
    02:00 +16°C° 0 mm 1 mps 653 mmHg 50%
    03:00 +15°C° 0 mm 1 mps 653 mmHg 54%
    04:00 +14°C° 0 mm 1 mps 653 mmHg 57%
    05:00 +14°C° 0 mm 1 mps 653 mmHg 57%
    06:00 +13°C° 0 mm 0 mps 653 mmHg 58%
    07:00 +13°C° 0 mm 0 mps 654 mmHg 58%
    08:00 +18°C° 0 mm 0 mps 655 mmHg 47%
    09:00 +22°C° 0 mm 0 mps 656 mmHg 36%
    10:00 +27°C° 0 mm 0 mps 658 mmHg 25%
    11:00 +30°C° 0 mm 1 mps 657 mmHg 23%
    12:00 +32°C° 0 mm 1 mps 657 mmHg 20%
    13:00 +33°C° 0 mm 1 mps 656 mmHg 18%
    14:00 +32°C° 0 mm 1 mps 656 mmHg 18%
    15:00 +31°C° 0 mm 1 mps 655 mmHg 18%
    16:00 +30°C° 0 mm 1 mps 654 mmHg 18%
    17:00 +27°C° 0 mm 1 mps 654 mmHg 23%
    18:00 +24°C° 0 mm 1 mps 654 mmHg 28%
    19:00 +21°C° 0 mm 1 mps 654 mmHg 34%
    20:00 +20°C° 0 mm 1 mps 654 mmHg 36%
    21:00 +19°C° 0 mm 1 mps 654 mmHg 39%
    22:00 +18°C° 0 mm 1 mps 654 mmHg 41%
    23:00 +16°C° 0 mm 1 mps 654 mmHg 45%

    5 June, Friday

    Time Temperature Precipitation Wind Pressure Humidity
    00:00 +16°C° 0 mm 2 mps 654 mmHg 49%
    01:00 +15°C° 0 mm 2 mps 654 mmHg 52%
    02:00 +15°C° 0 mm 1 mps 654 mmHg 56%
    03:00 +14°C° 0 mm 1 mps 654 mmHg 60%
    04:00 +13°C° 0 mm 1 mps 654 mmHg 63%
    05:00 +13°C° 0 mm 1 mps 654 mmHg 64%
    06:00 +12°C° 0 mm 0 mps 654 mmHg 65%
    07:00 +12°C° 0 mm 0 mps 654 mmHg 66%
    08:00 +18°C° 0 mm 1 mps 655 mmHg 53%
    09:00 +23°C° 0 mm 1 mps 656 mmHg 41%
    10:00 +27°C° 0 mm 2 mps 657 mmHg 28%
    11:00 +29°C° 0 mm 2 mps 657 mmHg 25%
    12:00 +30°C° 0 mm 2 mps 657 mmHg 21%
    13:00 +32°C° 0 mm 2 mps 657 mmHg 17%
    14:00 +32°C° 0 mm 1 mps 656 mmHg 17%
    15:00 +31°C° 0 mm 1 mps 656 mmHg 17%
    16:00 +31°C° 0 mm 1 mps 655 mmHg 17%
    17:00 +28°C° 0 mm 1 mps 655 mmHg 22%
    18:00 +24°C° 0 mm 1 mps 655 mmHg 27%
    19:00 +21°C° 0 mm 1 mps 654 mmHg 33%
    20:00 +20°C° 0 mm 1 mps 654 mmHg 34%
    21:00 +19°C° 0 mm 1 mps 655 mmHg 35%
    22:00 +17°C° 0 mm 2 mps 655 mmHg 37%
    23:00 +18°C° 0 mm 1 mps 655 mmHg 40%

    6 June, Saturday

    Time Temperature Precipitation Wind Pressure Humidity
    00:00 +16°C° 0 mm 1 mps 654 mmHg 43%
    01:00 +15°C° 0 mm 1 mps 654 mmHg 46%
    02:00 +14°C° 0 mm 1 mps 654 mmHg 49%
    03:00 +14°C° 0 mm 1 mps 654 mmHg 52%
    04:00 +12°C° 0 mm 0 mps 654 mmHg 55%
    05:00 +12°C° 0 mm 0 mps 654 mmHg 54%
    06:00 +12°C° 0 mm 0 mps 654 mmHg 54%
    07:00 +12°C° 0 mm 0 mps 655 mmHg 54%
    08:00 +19°C° 0 mm 1 mps 656 mmHg 44%
    09:00 +23°C° 0 mm 2 mps 657 mmHg 35%
    10:00 +27°C° 0 mm 3 mps 658 mmHg 25%
    11:00 +28°C° 0 mm 3 mps 657 mmHg 23%
    12:00 +30°C° 0 mm 3 mps 657 mmHg 21%
    13:00 +31°C° 0 mm 3 mps 657 mmHg 19%
    14:00 +31°C° 0 mm 2 mps 656 mmHg 18%
    15:00 +31°C° 0 mm 2 mps 656 mmHg 18%
    16:00 +31°C° 0 mm 1 mps 655 mmHg 17%
    17:00 +28°C° 0 mm 1 mps 655 mmHg 21%
    18:00 +25°C° 0 mm 1 mps 655 mmHg 25%
    19:00 +22°C° 0 mm 1 mps 655 mmHg 29%
    20:00 +21°C° 0 mm 1 mps 655 mmHg 32%
    21:00 +20°C° 0 mm 1 mps 655 mmHg 34%
    22:00 +19°C° 0 mm 1 mps 655 mmHg 37%
    23:00 +18°C° 0 mm 1 mps 655 mmHg 40%

    7 June, Sunday

    Time Temperature Precipitation Wind Pressure Humidity
    00:00 +15°C° 0 mm 1 mps 654 mmHg 43%
    01:00 +14°C° 0 mm 1 mps 654 mmHg 46%
    02:00 +14°C° 0 mm 1 mps 654 mmHg 48%
    03:00 +12°C° 0 mm 0 mps 653 mmHg 50%
    04:00 +11°C° 0 mm 0 mps 653 mmHg 51%
    05:00 +12°C° 0 mm 0 mps 653 mmHg 52%
    06:00 +12°C° 0 mm 0 mps 654 mmHg 52%
    07:00 +13°C° 0 mm 1 mps 654 mmHg 52%
    08:00 +17°C° 0 mm 2 mps 655 mmHg 43%
    09:00 +21°C° 0 mm 2 mps 656 mmHg 34%
    10:00 +25°C° 0 mm 3 mps 657 mmHg 25%
    11:00 +27°C° 0 mm 3 mps 657 mmHg 23%
    12:00 +29°C° 0 mm 3 mps 656 mmHg 20%
    13:00 +31°C° 0 mm 2 mps 656 mmHg 18%
    14:00 +30°C° 0 mm 2 mps 656 mmHg 17%
    15:00 +30°C° 0 mm 2 mps 655 mmHg 17%
    16:00 +30°C° 0 mm 2 mps 655 mmHg 17%
    17:00 +27°C° 0 mm 1 mps 655 mmHg 22%
    18:00 +23°C° 0 mm 1 mps 654 mmHg 27%
    19:00 +20°C° 0 mm 1 mps 654 mmHg 32%
    20:00 +19°C° 0 mm 1 mps 654 mmHg 34%
    21:00 +18°C° 0 mm 1 mps 654 mmHg 35%
    22:00 +16°C° 0 mm 1 mps 654 mmHg 37%
    23:00 +15°C° 0 mm 1 mps 654 mmHg 40%
    Show more